| time (UTC) | temp C | wind direction | speed KPH | gust KPH | rain 1hr cm | rain 24hr cm | rain mn cm | humidity % | barometer mb |
| 20260504221306 | 26 | 179 | 1.6 | 8.0 | 0.00 | 0.00 | 0.00 | 33 | 1007.4 |
| 20260504220800 | 26 | 249 | 1.6 | 8.0 | 0.00 | 0.00 | 0.00 | 32 | 1007.4 |
| 20260504220254 | 26 | 96 | 1.6 | 3.2 | 0.00 | 0.00 | 0.00 | 32 | 1007.5 |
| 20260504215748 | 26 | 212 | 0.0 | 3.2 | 0.00 | 0.00 | 0.00 | 32 | 1007.4 |
| 20260504215242 | 26 | 186 | 0.0 | 6.4 | 0.00 | 0.00 | 0.00 | 31 | 1007.4 |
| 20260504215001 | 26 | 151 | 1.6 | 6.4 | 0.00 | 0.00 | 0.00 | 31 | 1007.4 |
| 20260504214230 | 27 | 301 | 1.6 | 9.7 | 0.00 | 0.00 | 0.00 | 31 | 1007.4 |
| 20260504213947 | 27 | 162 | 1.6 | 9.7 | 0.00 | 0.00 | 0.00 | 30 | 1007.4 |
| 20260504213218 | 27 | 223 | 1.6 | 8.0 | 0.00 | 0.00 | 0.00 | 30 | 1007.3 |
| 20260504212712 | 27 | 44 | 1.6 | 8.0 | 0.00 | 0.00 | 0.00 | 30 | 1007.3 |
| 20260504212206 | 27 | 215 | 1.6 | 4.8 | 0.00 | 0.00 | 0.00 | 30 | 1007.4 |
| 20260504211700 | 27 | 165 | 1.6 | 6.4 | 0.00 | 0.00 | 0.00 | 30 | 1007.4 |
| 20260504211419 | 28 | 15 | 1.6 | 6.4 | 0.00 | 0.00 | 0.00 | 29 | 1007.4 |
| 20260504210647 | 28 | 158 | 0.0 | 6.4 | 0.00 | 0.00 | 0.00 | 31 | 1007.4 |
| 20260504210143 | 27 | 153 | 0.0 | 6.4 | 0.00 | 0.00 | 0.00 | 30 | 1007.3 |
| 20260504205636 | 27 | 146 | 0.0 | 3.2 | 0.00 | 0.00 | 0.00 | 30 | 1007.4 |
| 20260504205131 | 27 | 151 | 1.6 | 3.2 | 0.00 | 0.00 | 0.00 | 30 | 1007.4 |
| 20260504204624 | 27 | 214 | 1.6 | 3.2 | 0.00 | 0.00 | 0.00 | 29 | 1007.4 |
| 20260504204118 | 28 | 181 | 1.6 | 9.7 | 0.00 | 0.00 | 0.00 | 31 | 1007.5 |
| 20260504203612 | 27 | 207 | 1.6 | 9.7 | 0.00 | 0.00 | 0.00 | 30 | 1007.5 |
| 20260504203106 | 27 | 47 | 1.6 | 6.4 | 0.00 | 0.00 | 0.00 | 31 | 1007.5 |
| 20260504202600 | 27 | 53 | 1.6 | 14.5 | 0.00 | 0.00 | 0.00 | 30 | 1007.6 |
| 20260504202054 | 27 | 221 | 1.6 | 14.5 | 0.00 | 0.00 | 0.00 | 30 | 1007.7 |
| 20260504201548 | 27 | 183 | 1.6 | 8.0 | 0.00 | 0.00 | 0.00 | 31 | 1007.7 |
| 20260504201042 | 27 | 59 | 1.6 | 8.0 | 0.00 | 0.00 | 0.00 | 29 | 1007.9 |
| 20260504200536 | 27 | 257 | 1.6 | 6.4 | 0.00 | 0.00 | 0.00 | 30 | 1007.9 |
| 20260504200031 | 27 | 140 | 1.6 | 4.8 | 0.00 | 0.00 | 0.00 | 30 | 1007.9 |
| 20260504195524 | 27 | 159 | 1.6 | 4.8 | 0.00 | 0.00 | 0.00 | 31 | 1007.9 |
| 20260504195018 | 27 | 170 | 1.6 | 9.7 | 0.00 | 0.00 | 0.00 | 30 | 1007.9 |
| 20260504194512 | 27 | 219 | 0.0 | 9.7 | 0.00 | 0.00 | 0.00 | 30 | 1008.0 |
| 20260504194006 | 27 | 221 | 1.6 | 4.8 | 0.00 | 0.00 | 0.00 | 31 | 1008.1 |
| 20260504193459 | 26 | 169 | 1.6 | 6.4 | 0.00 | 0.00 | 0.00 | 32 | 1008.1 |
| 20260504192954 | 26 | 222 | 1.6 | 6.4 | 0.00 | 0.00 | 0.00 | 31 | 1008.3 |
| 20260504192448 | 26 | 340 | 1.6 | 4.8 | 0.00 | 0.00 | 0.00 | 33 | 1008.5 |
| 20260504191948 | 26 | 101 | 1.6 | 9.7 | 0.00 | 0.00 | 0.00 | 32 | 1008.6 |
| 20260504191449 | 26 | 120 | 1.6 | 9.7 | 0.00 | 0.00 | 0.00 | 32 | 1008.5 |
| 20260504191210 | 26 | 160 | 1.6 | 6.4 | 0.00 | 0.00 | 0.00 | 32 | 1008.5 |
| 20260504190448 | 25 | 232 | 1.6 | 6.4 | 0.00 | 0.00 | 0.00 | 31 | 1008.8 |
| 20260504185947 | 25 | 110 | 1.6 | 6.4 | 0.00 | 0.00 | 0.00 | 31 | 1008.8 |
| 20260504185444 | 25 | 161 | 1.6 | 6.4 | 0.00 | 0.00 | 0.00 | 31 | 1008.8 |
| 20260504185206 | 25 | 203 | 3.2 | 11.3 | 0.00 | 0.00 | 0.00 | 32 | 1009.0 |
| 20260504184445 | 25 | 144 | 1.6 | 11.3 | 0.00 | 0.00 | 0.00 | 32 | 1009.1 |
| 20260504183942 | 25 | 167 | 1.6 | 6.4 | 0.00 | 0.00 | 0.00 | 33 | 1009.0 |
| 20260504183440 | 24 | 56 | 1.6 | 4.8 | 0.00 | 0.00 | 0.00 | 32 | 1009.1 |
| 20260504182941 | 24 | 58 | 1.6 | 16.1 | 0.00 | 0.00 | 0.00 | 31 | 1009.1 |
| 20260504182441 | 24 | 234 | 1.6 | 16.1 | 0.00 | 0.00 | 0.00 | 31 | 1009.1 |
| 20260504181939 | 24 | 85 | 1.6 | 8.0 | 0.00 | 0.00 | 0.00 | 30 | 1009.1 |
| 20260504181439 | 24 | 118 | 1.6 | 11.3 | 0.00 | 0.00 | 0.00 | 30 | 1009.2 |
| 20260504180938 | 24 | 150 | 1.6 | 11.3 | 0.00 | 0.00 | 0.00 | 31 | 1009.3 |
| 20260504180706 | 24 | 224 | 1.6 | 4.8 | 0.00 | 0.00 | 0.00 | 33 | 1009.4 |
| 20260504175935 | 23 | 34 | 1.6 | 8.0 | 0.00 | 0.00 | 0.00 | 35 | 1009.4 |
| 20260504175657 | 23 | 200 | 3.2 | 8.0 | 0.00 | 0.00 | 0.00 | 32 | 1009.4 |
| 20260504174935 | 23 | 180 | 1.6 | 8.0 | 0.00 | 0.00 | 0.00 | 33 | 1009.5 |
| 20260504174435 | 23 | 225 | 1.6 | 8.0 | 0.00 | 0.00 | 0.00 | 32 | 1009.4 |
| 20260504173936 | 23 | 211 | 1.6 | 8.0 | 0.00 | 0.00 | 0.00 | 31 | 1009.5 |
| 20260504173926 | 24 | 224 | 1.6 | 8.0 | 0.00 | 0.00 | 0.00 | 32 | 1009.7 |
| 20260504172935 | 24 | 233 | 1.6 | 9.7 | 0.00 | 0.00 | 0.00 | 32 | 1009.7 |
| 20260504172658 | 25 | 122 | 1.6 | 9.7 | 0.00 | 0.00 | 0.00 | 34 | 1009.7 |
| 20260504172427 | 25 | 60 | 1.6 | 9.7 | 0.00 | 0.00 | 0.00 | 32 | 1009.7 |
| 20260504171431 | 24 | 322 | 3.2 | 11.3 | 0.00 | 0.00 | 0.00 | 33 | 1009.9 |
| 20260504171147 | 24 | 37 | 1.6 | 11.3 | 0.00 | 0.00 | 0.00 | 32 | 1009.9 |
| 20260504170431 | 24 | 51 | 3.2 | 8.0 | 0.00 | 0.00 | 0.00 | 33 | 1010.0 |
| 20260504160426 | 22 | 142 | 1.6 | 6.4 | 0.00 | 0.00 | 0.00 | 35 | 1010.5 |
| 20260504150853 | 19 | 41 | 0.0 | 6.4 | 0.00 | 0.00 | 0.00 | 41 | 1011.0 |
| 20260504150347 | 19 | 198 | 0.0 | 4.8 | 0.00 | 0.00 | 0.00 | 43 | 1011.0 |
| 20260504140741 | 16 | 5 | 0.0 | 4.8 | 0.00 | 0.00 | 0.00 | 49 | 1011.3 |
| 20260504140235 | 16 | 105 | 1.6 | 9.7 | 0.00 | 0.00 | 0.00 | 51 | 1011.4 |
| 20260504130629 | 14 | 217 | 1.6 | 8.0 | 0.00 | 0.00 | 0.00 | 56 | 1011.7 |
| 20260504130123 | 13 | 123 | 0.0 | 6.4 | 0.00 | 0.00 | 0.00 | 57 | 1011.8 |
| 20260504110405 | 10 | 213 | 0.0 | 0.0 | 0.00 | 0.00 | 0.00 | 68 | 1012.0 |
| 20260504100335 | 10 | 213 | 0.0 | 0.0 | 0.00 | 0.00 | 0.00 | 63 | 1011.9 |
| 20260504081748 | 11 | 213 | 0.0 | 0.0 | 0.00 | 0.00 | 0.00 | 58 | 1012.3 |
| 20260504081506 | 11 | 213 | 0.0 | 0.0 | 0.00 | 0.00 | 0.00 | 56 | 1012.3 |
| 20260504080749 | 11 | 213 | 0.0 | 0.0 | 0.00 | 0.00 | 0.00 | 56 | 1012.2 |
| 20260504080249 | 11 | 213 | 0.0 | 0.0 | 0.00 | 0.00 | 0.00 | 56 | 1012.2 |
| 20260504070244 | 10 | 181 | 0.0 | 0.0 | 0.00 | 0.00 | 0.00 | 60 | 1012.1 |
| 20260504050616 | 7 | 4 | 0.0 | 0.0 | 0.00 | 0.00 | 0.00 | 69 | 1012.2 |
| 20260504050108 | 7 | 4 | 0.0 | 0.0 | 0.00 | 0.00 | 0.00 | 69 | 1012.2 |
| 20260504045602 | 7 | 4 | 0.0 | 0.0 | 0.00 | 0.00 | 0.00 | 69 | 1012.2 |
| 20260504045057 | 7 | 4 | 0.0 | 0.0 | 0.00 | 0.00 | 0.00 | 69 | 1012.1 |
| 20260504044551 | 7 | 4 | 0.0 | 0.0 | 0.00 | 0.00 | 0.00 | 69 | 1012.2 |
| 20260504044045 | 7 | 4 | 0.0 | 0.0 | 0.00 | 0.00 | 0.00 | 69 | 1012.2 |
| 20260504043758 | 7 | 4 | 0.0 | 0.0 | 0.00 | 0.00 | 0.00 | 69 | 1012.1 |
| 20260504043033 | 7 | 4 | 0.0 | 0.0 | 0.00 | 0.00 | 0.00 | 70 | 1012.1 |
| 20260504042527 | 7 | 4 | 0.0 | 0.0 | 0.00 | 0.00 | 0.00 | 70 | 1012.2 |
| 20260504042020 | 7 | 4 | 0.0 | 0.0 | 0.00 | 0.00 | 0.00 | 72 | 1012.1 |
| 20260504041514 | 7 | 4 | 0.0 | 0.0 | 0.00 | 0.00 | 0.00 | 72 | 1012.1 |
| 20260504041008 | 7 | 4 | 0.0 | 0.0 | 0.00 | 0.00 | 0.00 | 73 | 1012.1 |
| 20260504040721 | 7 | 4 | 0.0 | 0.0 | 0.00 | 0.00 | 0.00 | 72 | 1012.1 |
| 20260504040001 | 7 | 4 | 0.0 | 0.0 | 0.00 | 0.00 | 0.00 | 72 | 1012.1 |
| 20260504035458 | 7 | 4 | 0.0 | 0.0 | 0.00 | 0.00 | 0.00 | 71 | 1012.0 |
| 20260504034957 | 7 | 4 | 0.0 | 0.0 | 0.00 | 0.00 | 0.00 | 71 | 1012.0 |
| 20260504034453 | 7 | 4 | 0.0 | 0.0 | 0.00 | 0.00 | 0.00 | 71 | 1012.0 |
| 20260504034217 | 7 | 3 | 0.0 | 0.0 | 0.00 | 0.00 | 0.00 | 71 | 1012.1 |
| 20260504033454 | 7 | 4 | 0.0 | 0.0 | 0.00 | 0.00 | 0.00 | 70 | 1012.1 |
| 20260504033222 | 7 | 4 | 0.0 | 0.0 | 0.00 | 0.00 | 0.00 | 71 | 1012.1 |
| 20260504032944 | 7 | 4 | 0.0 | 0.0 | 0.00 | 0.00 | 0.00 | 70 | 1012.1 |
| 20260504031953 | 7 | 4 | 0.0 | 0.0 | 0.00 | 0.00 | 0.00 | 70 | 1012.1 |
| 20260504031455 | 7 | 4 | 0.0 | 0.0 | 0.00 | 0.00 | 0.00 | 69 | 1012.1 |
| 20260504030952 | 7 | 4 | 0.0 | 0.0 | 0.00 | 0.00 | 0.00 | 69 | 1012.0 |
| 20260504030452 | 7 | 4 | 0.0 | 0.0 | 0.00 | 0.00 | 0.00 | 69 | 1011.9 |
| 20260504025952 | 7 | 4 | 0.0 | 0.0 | 0.00 | 0.00 | 0.00 | 69 | 1012.0 |
| 20260504025453 | 7 | 4 | 0.0 | 0.0 | 0.00 | 0.00 | 0.00 | 68 | 1012.1 |
| 20260504024949 | 7 | 4 | 0.0 | 0.0 | 0.00 | 0.00 | 0.00 | 68 | 1012.0 |
| 20260504024448 | 7 | 4 | 0.0 | 0.0 | 0.00 | 0.00 | 0.00 | 67 | 1012.0 |
| 20260504023948 | 7 | 4 | 0.0 | 0.0 | 0.00 | 0.00 | 0.00 | 67 | 1012.0 |
| 20260504023447 | 8 | 4 | 0.0 | 0.0 | 0.00 | 0.00 | 0.00 | 66 | 1012.1 |
| 20260504023210 | 8 | 4 | 0.0 | 0.0 | 0.00 | 0.00 | 0.00 | 65 | 1012.1 |
| 20260504022448 | 8 | 4 | 0.0 | 0.0 | 0.00 | 0.00 | 0.00 | 65 | 1012.1 |
| 20260504021948 | 8 | 4 | 0.0 | 0.0 | 0.00 | 0.00 | 0.00 | 65 | 1012.0 |
| 20260504021447 | 8 | 4 | 0.0 | 0.0 | 0.00 | 0.00 | 0.00 | 64 | 1012.0 |
| 20260504020949 | 8 | 4 | 0.0 | 0.0 | 0.00 | 0.00 | 0.00 | 63 | 1011.9 |
| 20260504020447 | 8 | 4 | 0.0 | 0.0 | 0.00 | 0.00 | 0.00 | 62 | 1011.9 |
| 20260504020210 | 8 | 3 | 0.0 | 0.0 | 0.00 | 0.00 | 0.00 | 61 | 1011.9 |
| 20260504015448 | 9 | 4 | 0.0 | 0.0 | 0.00 | 0.00 | 0.00 | 61 | 1011.9 |
| 20260504014949 | 9 | 4 | 0.0 | 0.0 | 0.00 | 0.00 | 0.00 | 61 | 1011.9 |
| 20260504014710 | 9 | 4 | 0.0 | 0.0 | 0.00 | 0.00 | 0.00 | 60 | 1011.8 |
| 20260504013948 | 9 | 4 | 0.0 | 0.0 | 0.00 | 0.00 | 0.00 | 59 | 1011.9 |
| 20260504013714 | 10 | 4 | 0.0 | 0.0 | 0.00 | 0.00 | 0.00 | 59 | 1011.9 |
| 20260504012952 | 10 | 4 | 0.0 | 0.0 | 0.00 | 0.00 | 0.00 | 57 | 1011.9 |
| 20260504012449 | 10 | 4 | 0.0 | 0.0 | 0.00 | 0.00 | 0.00 | 56 | 1011.8 |
| 20260504011940 | 10 | 4 | 0.0 | 0.0 | 0.00 | 0.00 | 0.00 | 55 | 1011.8 |
| 20260504011436 | 10 | 4 | 0.0 | 0.0 | 0.00 | 0.00 | 0.00 | 55 | 1011.7 |
| 20260504010931 | 10 | 4 | 0.0 | 0.0 | 0.00 | 0.00 | 0.00 | 55 | 1011.7 |
| 20260504010425 | 11 | 4 | 0.0 | 0.0 | 0.00 | 0.00 | 0.00 | 53 | 1011.7 |
| 20260504005919 | 11 | 4 | 0.0 | 0.0 | 0.00 | 0.00 | 0.00 | 52 | 1011.7 |
| 20260504005413 | 11 | 3 | 0.0 | 0.0 | 0.00 | 0.00 | 0.00 | 51 | 1011.8 |
| 20260504005134 | 11 | 4 | 0.0 | 0.0 | 0.00 | 0.00 | 0.00 | 51 | 1011.8 |
| 20260504004401 | 11 | 4 | 0.0 | 0.0 | 0.00 | 0.00 | 0.00 | 50 | 1011.7 |
| 20260504003855 | 12 | 4 | 0.0 | 0.0 | 0.00 | 0.00 | 0.00 | 49 | 1011.7 |
| 20260504003349 | 12 | 4 | 0.0 | 0.0 | 0.00 | 0.00 | 0.00 | 48 | 1011.6 |
| 20260504002843 | 12 | 4 | 0.0 | 0.0 | 0.00 | 0.00 | 0.00 | 47 | 1011.6 |
| 20260504002337 | 13 | 4 | 0.0 | 0.0 | 0.00 | 0.00 | 0.00 | 46 | 1011.5 |
| 20260504002057 | 13 | 3 | 0.0 | 0.0 | 0.00 | 0.00 | 0.00 | 45 | 1011.6 |
| 20260504001326 | 13 | 4 | 0.0 | 0.0 | 0.00 | 0.00 | 0.00 | 43 | 1011.5 |
| 20260504000818 | 13 | 4 | 0.0 | 0.0 | 0.00 | 0.00 | 0.00 | 43 | 1011.4 |
| 20260504000313 | 14 | 4 | 0.0 | 0.0 | 0.00 | 0.00 | 0.00 | 42 | 1011.4 |
| 20260504000025 | 15 | 4 | 0.0 | 0.0 | 0.00 | 0.00 | 0.00 | 41 | 1011.3 |
| 20260503235300 | 15 | 4 | 0.0 | 0.0 | 0.00 | 0.00 | 0.00 | 38 | 1011.3 |
| 20260503234755 | 15 | 4 | 0.0 | 0.0 | 0.00 | 0.00 | 0.00 | 39 | 1011.2 |
| 20260503234249 | 15 | 4 | 0.0 | 1.6 | 0.00 | 0.00 | 0.00 | 38 | 1011.2 |
| 20260503233742 | 16 | 4 | 0.0 | 1.6 | 0.00 | 0.00 | 0.00 | 36 | 1011.2 |
| 20260503233236 | 16 | 345 | 0.0 | 1.6 | 0.00 | 0.00 | 0.00 | 36 | 1011.1 |
| 20260503232730 | 16 | 345 | 0.0 | 1.6 | 0.00 | 0.00 | 0.00 | 36 | 1011.2 |
| 20260503232226 | 16 | 124 | 0.0 | 1.6 | 0.00 | 0.00 | 0.00 | 35 | 1011.1 |
| 20260503231719 | 16 | 205 | 0.0 | 4.8 | 0.00 | 0.00 | 0.00 | 34 | 1011.1 |
| 20260503231704 | 16 | 153 | 0.0 | 4.8 | 0.00 | 0.00 | 0.00 | 33 | 1011.0 |
| 20260503230707 | 17 | 217 | 0.0 | 3.2 | 0.00 | 0.00 | 0.00 | 34 | 1011.0 |
| 20260503230201 | 17 | 216 | 0.0 | 3.2 | 0.00 | 0.00 | 0.00 | 32 | 1011.1 |
| 20260503225655 | 17 | 111 | 0.0 | 6.4 | 0.00 | 0.00 | 0.00 | 32 | 1011.1 |
| 20260503225149 | 17 | 193 | 1.6 | 6.4 | 0.00 | 0.00 | 0.00 | 32 | 1011.1 |
| 20260503224643 | 17 | 350 | 0.0 | 6.4 | 0.00 | 0.00 | 0.00 | 32 | 1011.2 |
| 20260503224403 | 17 | 211 | 1.6 | 9.7 | 0.00 | 0.00 | 0.00 | 31 | 1011.1 |
| 20260503223858 | 17 | 98 | 1.6 | 9.7 | 0.00 | 0.00 | 0.00 | 31 | 1011.2 |
| 20260503223125 | 17 | 83 | 0.0 | 8.0 | 0.00 | 0.00 | 0.00 | 30 | 1011.2 |
| 20260503222619 | 17 | 227 | 0.0 | 4.8 | 0.00 | 0.00 | 0.00 | 30 | 1011.1 |
| 20260503222113 | 18 | 205 | 1.6 | 4.8 | 0.00 | 0.00 | 0.00 | 30 | 1011.2 |
| 20260503221606 | 18 | 203 | 1.6 | 8.0 | 0.00 | 0.00 | 0.00 | 30 | 1011.3 |